DMSP 5D-2 F13 DEB, 40495

Orbit data source: Space-Track

DMSP 5D-2 F13 DEB, 40495 is space debris in SSO originally from a launch on Fri, 24 Mar 1995 UTC launched from the Air Force Western Test Range (AFWTR). Debris objects in space refer to the collection of defunct objects orbiting the Earth. Examples of debris include non-operational satellites, rocket bodies, and fragments generated from explosions, collisions, or faulty payload assembly.

Loading next visibility...
DMSP 5D-2 F13 DEB details
Identifier
40495, 1995-015CJ
Orbit
SSO
Last TLE update1 day ago
Origin
Flag of USUSAF SMC (US)
ManufacturerUnknown
MissionSpacecraft
Bus & MotorUnknown
MassUnknown
Launch date (UTC)
1995-03-24 (30 years ago)
Launch vehicleUnknown
Launch site
Air Force Western Test Range (AFWTR)
Object type
Payload
Rocket body
Debris
Shape & HBRUnknown
Radar Cross SectionSmall (<0.1 m²)

Expand to show TLE details & history

TLE from 1 day ago
0 DMSP 5D-2 F13 DEB
1 40495U 95015CJ  24336.23455280  .00142805  00000-0  15430-1 0  9993
2 40495  98.5794  73.1910 0030361 170.7118 189.4663 14.87209830512833
Epoch: 2024-12-01T05:37Z
Definitive object data (Epoch: 2024-12-01T05:37:45.361Z)
Latitude-0.00012°
Longitude-81.82367°
Altitude630.592 km
Speed7.532 km/s
True Right ascension04h 52m 45s
True Declination0° 00' 00"
Sunlit
Object was in full shadow at TLE epoch
Visualization TLE readout
Latitude62.78396°
Longitude-97.61174°
Altitude621.285 km
Speed7.552 km/s
Apparent Right ascension19h 49m 12s
Apparent Declination41° 17' 00"
Sunlit
Object is in full shadow
Visualization observer readout
Local Sidereal Time05:31:07
Azimuth334.759° NNW
Elevation-2.953°
Doppler factor1
Orbital elements
Apogee altitude624.919 km
Perigee altitude582.524 km
Semi-major axis6,981.858 km
Eccentricity0.0030361
Inclination98.5794°
RAAN73.191°
Arg. of periapsis170.7118°
True anomaly189.40929°
Mean anomaly189.4663°
Eccentric anomaly189.43778°
Mean motion3.72037 °/min
BSTAR0.01543
Orbital period96.76 mins
Loading maneuver chart data...

DMSP 5D-2 F13 DEB Visibility forecast

Observer location: undefined°, undefined

Span
Click to sort rows by Start time (UTC) header in descending order
Start Az.
Max El. time (UTC)
Max El. Az.
Max El.
End time (UTC)
End Az.
7 mins2024-12-02 19:19:59.798Z24.263° NE2024-12-02 19:22:59.798Z71.314° E38.176°2024-12-02 19:26:59.798Z178.502° S
7 mins2024-12-03 06:11:59.798Z136.938° SSE2024-12-03 06:14:59.798Z73.051° E34.289°2024-12-03 06:18:59.798Z0.89° NNE
|